Glendale Luke AFB, AZ

7:39 PM MST on December 15, 2019 (GMT -0700)
Luke Air Force Base

Weather History for KLUF - August, 2019

Change the Weather History Date:

Saturday, August 10, 2019

  Actual Average Record
Temperature  
Mean Temperature 92 °F -  
Max Temperature 102 °F 105 °F 114 °F (1933)
Min Temperature 83 °F 76 °F 61 °F (1949)
Cooling Degree Days 28    
Growing Degree Days 42 (Base 50)    
Moisture  
Dew Point 60 °F    
Average Humidity 32    
Maximum Humidity 49    
Minimum Humidity 22    
Precipitation  
Precipitation 0.00 in - - ()
Sea Level Pressure  
Sea Level Pressure 29.75 in    
Wind  
Wind Speed 9 mph (SW)    
Max Wind Speed 16 mph    
Max Gust Speed 22 mph    
Visibility 10 miles    
Events      
Averages and records for this station are not official NWS values.
T = Trace of Precipitation, MM = Missing Value Source: NWS Daily Summary

Daily Weather History Graph

Daily Weather History Graph

Search for Another Location

Airport or City:

Astronomy

Aug. 10, 2019 Rise Set
Actual Time 5:48 AM MST 7:21 PM MST
Civil Twilight 5:21 AM MST 7:47 PM MST
Nautical Twilight 4:49 AM MST 8:19 PM MST
Astronomical Twilight 4:16 AM MST 8:52 PM MST
Moon 4:01 PM MST (8/10) 1:31 AM MST (8/10)
Length of Visible Light 14h 26m
Length of Day
13h 32m
Waxing Gibbous, 80% of the Moon is Illuminated
Aug 10
Waxing Gibbous
Aug 15
Full
Aug 23
Last Quarter
Aug 30
New
Sep 5
First Quarter

Hourly Weather History & Observations

Time (MST) Temp. Heat Index Dew Point Humidity Pressure Visibility Wind Dir Wind Speed Gust Speed Precip Events Conditions
12:56 AM 86.2 °F 86.3 °F 61.0 °F 43% 29.76 in 10.0 mi NE 6.9 mph - N/A   Clear
1:56 AM 86.2 °F 85.9 °F 59.7 °F 41% 29.75 in 10.0 mi Calm Calm - N/A   Clear
2:56 AM 85.1 °F 85.9 °F 62.6 °F 47% 29.75 in 10.0 mi NNW 3.5 mph - N/A   Clear
3:56 AM 84.2 °F 84.4 °F 60.4 °F 45% 29.75 in 10.0 mi Calm Calm - N/A   Clear
4:56 AM 85.6 °F 85.4 °F 60.4 °F 42% 29.75 in 10.0 mi Calm Calm - N/A   Clear
5:56 AM 83.1 °F 83.9 °F 61.9 °F 49% 29.79 in 10.0 mi Calm Calm - N/A   Clear
6:56 AM 86.4 °F 87.0 °F 62.4 °F 45% 29.80 in 10.0 mi NNW 3.5 mph - N/A   Clear
7:56 AM 87.1 °F 87.2 °F 61.2 °F 42% 29.82 in 10.0 mi WSW 6.9 mph - N/A   Clear
8:56 AM 89.4 °F 89.0 °F 59.7 °F 37% 29.84 in 10.0 mi West 13.8 mph - N/A   Partly Cloudy
9:56 AM 90.9 °F 91.3 °F 61.7 °F 38% 29.84 in 10.0 mi WSW 15.0 mph - N/A   Partly Cloudy
10:56 AM 93.7 °F 93.3 °F 59.4 °F 32% 29.83 in 10.0 mi SW 12.7 mph - N/A   Partly Cloudy
11:56 AM 95.5 °F 95.6 °F 60.1 °F 31% 29.81 in 10.0 mi SW 8.1 mph 17.3 mph N/A   Partly Cloudy
12:56 PM 97.2 °F 97.2 °F 60.4 °F 29% 29.79 in 10.0 mi WSW 10.4 mph 17.3 mph N/A   Partly Cloudy
1:56 PM 98.4 °F 99.2 °F 60.6 °F 29% 29.77 in 10.0 mi SW 11.5 mph 18.4 mph N/A   Partly Cloudy
2:56 PM 99.7 °F 100.1 °F 60.6 °F 27% 29.75 in 10.0 mi SSW 12.7 mph 21.9 mph N/A   Partly Cloudy
3:56 PM 100.0 °F 101.2 °F 61.0 °F 28% 29.73 in 10.0 mi SW 11.5 mph - N/A   Clear
4:26 PM 102.2 °F 102.4 °F 59.0 °F 24% 29.72 in 10.0 mi West 13.8 mph - N/A   Clear
4:29 PM 102.2 °F 102.4 °F 59.0 °F 24% 29.72 in 10.0 mi SW 15.0 mph - N/A   Clear
4:30 PM 102.2 °F 102.4 °F 59.0 °F 24% 29.70 in 10.0 mi SW 15.0 mph - N/A   Clear
4:31 PM 102.2 °F 102.4 °F 59.0 °F 24% 29.70 in 10.0 mi SW 15.0 mph - N/A   Clear
4:32 PM 102.2 °F 102.4 °F 59.0 °F 24% 29.72 in 10.0 mi SW 15.0 mph - N/A   Clear
4:33 PM 102.2 °F 102.4 °F 59.0 °F 24% 29.70 in 10.0 mi SW 16.1 mph - N/A   Clear
4:34 PM 102.2 °F 102.4 °F 59.0 °F 24% 29.72 in 10.0 mi SW 15.0 mph - N/A   Clear
4:35 PM 102.2 °F 102.4 °F 59.0 °F 24% 29.70 in 10.0 mi SW 15.0 mph - N/A   Clear
4:36 PM 102.2 °F 102.4 °F 59.0 °F 24% 29.70 in 10.0 mi SW 15.0 mph - N/A   Clear
4:37 PM 102.2 °F 102.4 °F 59.0 °F 24% 29.70 in 10.0 mi SW 12.7 mph - N/A   Clear
4:38 PM 102.2 °F 101.4 °F 57.2 °F 22% 29.70 in 10.0 mi SW 12.7 mph - N/A   Clear
4:39 PM 102.2 °F 101.4 °F 57.2 °F 22% 29.70 in 10.0 mi SW 13.8 mph - N/A   Clear
4:40 PM 102.2 °F 101.4 °F 57.2 °F 22% 29.70 in 10.0 mi SW 12.7 mph - N/A   Clear
4:56 PM 101.7 °F 102.2 °F 59.2 °F 25% 29.70 in 10.0 mi West 11.5 mph - N/A   Partly Cloudy
5:56 PM 100.6 °F 100.0 °F 57.2 °F 24% 29.71 in 10.0 mi SW 12.7 mph - N/A   Clear
6:56 PM 99.9 °F 99.9 °F 58.8 °F 26% 29.72 in 10.0 mi SW 11.5 mph - N/A   Clear
7:56 PM 95.2 °F 96.8 °F 63.9 °F 35% 29.74 in 10.0 mi SSE 11.5 mph - N/A   Clear
8:56 PM 91.4 °F 93.2 °F 64.4 °F 41% 29.77 in 10.0 mi SSE 11.5 mph - N/A   Clear
9:56 PM 89.8 °F 91.4 °F 64.2 °F 43% 29.79 in 10.0 mi SSE 15.0 mph - N/A   Clear
10:56 PM 87.3 °F 88.9 °F 64.6 °F 47% 29.82 in 10.0 mi SE 10.4 mph - N/A   Clear
11:56 PM 86.5 °F 87.8 °F 64.4 °F 47% 29.83 in 10.0 mi SE 11.5 mph - N/A   Clear